TimeEST,TemperatureF,Dew PointF,Humidity,Sea Level PressureIn,VisibilityMPH,Wind Direction,Wind SpeedMPH,Gust SpeedMPH,PrecipitationIn,Events,Conditions,WindDirDegrees,DateUTC
12:53 AM,71.1,55.9,59,30.20,10.0,East,12.7,20.7,N/A,,Mostly Cloudy,80,2012-12-04 05:53:00
1:53 AM,71.1,57.9,63,30.19,10.0,East,11.5,-,N/A,,Scattered Clouds,80,2012-12-04 06:53:00
2:53 AM,71.1,59.0,66,30.19,10.0,ENE,13.8,-,N/A,,Mostly Cloudy,70,2012-12-04 07:53:00
3:53 AM,71.1,60.1,68,30.18,10.0,ENE,10.4,-,N/A,,Partly Cloudy,70,2012-12-04 08:53:00
4:53 AM,72.0,60.1,66,30.17,10.0,ENE,9.2,23.0,N/A,,Overcast,60,2012-12-04 09:53:00
5:53 AM,72.0,61.0,68,30.18,10.0,ENE,16.1,23.0,N/A,,Overcast,70,2012-12-04 10:53:00
6:53 AM,72.0,60.1,66,30.19,10.0,ENE,16.1,23.0,N/A,,Clear,70,2012-12-04 11:53:00
7:53 AM,73.0,60.1,64,30.21,10.0,East,17.3,-,N/A,,Clear,80,2012-12-04 12:53:00
8:53 AM,73.9,61.0,64,30.22,10.0,ENE,17.3,21.9,N/A,,Partly Cloudy,70,2012-12-04 13:53:00
9:53 AM,73.9,63.0,68,30.24,10.0,East,16.1,23.0,0.00,,Overcast,80,2012-12-04 14:53:00
10:53 AM,73.9,61.0,64,30.23,10.0,East,16.1,24.2,0.00,,Mostly Cloudy,80,2012-12-04 15:53:00
11:53 AM,75.0,57.9,55,30.23,10.0,East,12.7,20.7,N/A,,Mostly Cloudy,80,2012-12-04 16:53:00
12:53 PM,75.9,55.9,50,30.20,10.0,ENE,15.0,-,N/A,,Mostly Cloudy,70,2012-12-04 17:53:00
1:53 PM,75.9,55.9,50,30.18,10.0,East,12.7,-,N/A,,Scattered Clouds,90,2012-12-04 18:53:00
2:53 PM,78.1,57.0,48,30.17,10.0,ENE,10.4,-,N/A,,Scattered Clouds,70,2012-12-04 19:53:00
3:53 PM,75.0,57.9,55,30.17,10.0,ENE,10.4,-,N/A,,Mostly Cloudy,60,2012-12-04 20:53:00
4:53 PM,73.9,57.9,57,30.17,10.0,ENE,10.4,-,N/A,,Mostly Cloudy,60,2012-12-04 21:53:00
5:53 PM,73.9,57.9,57,30.17,10.0,ENE,9.2,-,N/A,,Overcast,70,2012-12-04 22:53:00
6:53 PM,73.9,57.0,55,30.18,10.0,ENE,9.2,-,N/A,,Mostly Cloudy,70,2012-12-04 23:53:00
7:53 PM,71.1,64.0,78,30.19,10.0,ESE,16.1,24.2,0.00,Rain,Light Rain,120,2012-12-05 00:53:00
8:53 PM,73.0,62.1,68,30.19,10.0,ENE,15.0,-,0.01,,Overcast,70,2012-12-05 01:53:00
9:53 PM,73.0,61.0,66,30.18,10.0,ENE,11.5,-,N/A,,Overcast,70,2012-12-05 02:53:00
10:53 PM,73.0,62.1,68,30.17,10.0,ENE,12.7,-,N/A,,Overcast,70,2012-12-05 03:53:00
11:53 PM,73.0,63.0,71,30.16,10.0,East,9.2,-,N/A,,Overcast,80,2012-12-05 04:53:00